Regional Weather Roundup
Issued by NWS Jackson, KY

Home | Current Version | Previous Version | Graphics & Text | Print | Product List | Glossary On
Versions: 1 2 3 4 5 6 7 8 9 10 11 12 13 14 15 16 17 18 19 20 21 22 23 24 25 26 27 28 29 30 31 32 33 34 35 36 37 38 39 40 41 42 43 44 45 46 47 48 49 50
000
ASUS43 KJKL 211910
RWRJKL

EAST KENTUCKY HOURLY WEATHER ROUNDUP
NATIONAL WEATHER SERVICE JACKSON KY
300 PM EDT MON MAY 21 2018

NOTE: "FAIR" INDICATES FEW OR NO CLOUDS BELOW 12,000 FEET WITH
NO SIGNIFICANT WEATHER AND/OR OBSTRUCTIONS TO VISIBILITY.

* THESE REPORTS ARE NOT UNDER NWS QUALITY CONTROL AND MAY NOT
  REPORT WEATHER SUCH AS PRECIPITATION AND FOG.

KYZ079-080-083-085-087-088-110-112-115-119-120-212000
...EASTERN KENTUCKY...

CITY           SKY/WX    TMP DP  RH WIND       PRES   REMARKS
JACKSON        PTSUNNY   84  66  54 VRB3      30.11F
LONDON           N/A     83  66  56 W6        30.11F
SOMERSET*      PTSUNNY   81  64  57 MISG      30.11F
MONTICELLO*    PTSUNNY   83  67  58 VRB6      30.11F
WILLIAMSBURG*    N/A     72  72 100 CALM      30.14S
MIDDLESBORO*     N/A     85  65  50 S5        30.12F
HARLAN APT*      N/A     81  63  53 NW5       30.13F
PIKE CO APT*     N/A     84  62  46 CALM      30.11F
BIG SANDY APT*   N/A     84  64  50 E3        30.10F
MOREHEAD APT*    N/A     84  63  48 VRB5      30.11F
ASHLAND*         N/A     84  68  58 W7        30.06F
$$

KYZ035-036-041-042-044-050-067-078-099-212000
...CENTRAL KENTUCKY...

CITY           SKY/WX    TMP DP  RH WIND       PRES   REMARKS
MT STERLING*     N/A     82  64  54 CALM      30.11F
FLEMING/MASON*   N/A     87  66  49 W9        30.09F
DANVILLE*        N/A     82  66  57 SW7       30.10F
LEXINGTON        N/A     84  63  49 VRB5      30.09F
FRANKFORT        N/A     84  63  49 SE6       30.08F
LOUISVILLE     PTSUNNY   86  64  47 SW5       30.05F
LEBANON*         N/A     84  66  54 SE7       30.08F
GLASGOW*         N/A     85  66  53 SW5       30.08F
BOWLING GREEN  PTSUNNY   84  70  62 S8        30.07F
$$

KYZ091>093-OHZ055-061-077-WVZ005-015-034-035-042-212000
...SOUTHERN OHIO/WEST VIRGINIA...

CITY           SKY/WX    TMP DP  RH WIND       PRES   REMARKS
COVINGTON        N/A     85  63  47 W5        30.07F
COLUMBUS       PTSUNNY   79  64  60 SE6       30.09F
DAYTON         PTSUNNY   81  68  64 SE10      30.08F
WILMINGTON       N/A     80  70  71 VRB3      30.07F
HUNTINGTON     PTSUNNY   85  64  49 W6        30.06F
CHARLESTON     PTSUNNY   84  65  52 SE7       30.07F THUNDER
PINEVILLE*     RAIN      76  62  63 MISG      30.22R
BECKLEY        PTSUNNY   78  59  51 NE3       30.17F
BLUEFIELD      CLOUDY    65  62  90 VRB7      30.22F
LOGAN CO APT*    N/A     82  59  44 CALM      30.12F
$$

VAZ002-007-008-TNZ017-027-036-066-071-212000
...SOUTHWEST VIRGINIA/EAST TENNESSEE...

CITY           SKY/WX    TMP DP  RH WIND       PRES   REMARKS
WISE*          PTSUNNY   81  61  50 SE8       30.19F
JONESVILLE*      N/A     82  66  57 CALM      30.15F
ABINGDON*      RAIN      69  66  90 NE3       30.20F
BRISTOL        LGT RAIN  77  71  82 SE7       30.14F
MORRISTOWN*    MOCLDY    79  66  65 W9        30.13F
SEVIERVILLE*   MOCLDY    77  70  78 SW5       30.13F
KNOXVILLE      TSTM      79  66  64 SW9       30.12S
LAFOLLETTE*    CLEAR     84  63  48 SW6       30.15F
OAK RIDGE        N/A     84  64  50 VRB6      30.12F
CROSSVILLE       N/A     78  61  55 VRB6      30.16F
NASHVILLE      PTSUNNY   85  68  56 E9        30.07F
$$

...KEY TO REMARKS...
VSB - VISIBILITY IN MILES
WCI - WIND CHILL INDEX
HX  - HEAT INDEX

$$



USA.gov is the U.S. government's official web portal to all federal, state and local government web resources and services.